Home > Weather > Freehold > Past weeks

Flag for USA Past Weather in Freehold, New Jersey, USA — Yesterday and Last 2 Weeks

Now
75 °F

Clear.


Feels Like: 77 °F
Forecast: 72 / 89 °F
Wind: 3 mph from Northeast

Location: Belmar-Farmdale

Current Time: Jul 27, 2016 at 5:49:00 AM

Latest Report: Jul 27, 2016 at 4:56 AM


Visibility: 10 mi

Pressure: 29.95 "Hg

Humidity: 69%

Dew Point: 64 °F

Location of FreeholdLocation

Past Weather in Freehold — Graph

°F

Freehold Temperature Yesterday

Maximum temperature yesterday: 91 °F (at 3:56 PM)
Minimum temperature yesterday: 72 °F (at 12:56 AM)
Average temperature yesterday: 80 °F

High & Low Weather Summary for the Past Weeks

 TemperatureHumidityPressure
High97 °F (Jul 23, 3:56 PM)100% (Jul 25, 8:56 PM)30.26 "Hg (Jul 25, 8:56 PM)
Low63 °F (Jul 12, 4:56 AM)26% (Jul 23, 4:56 PM)29.81 "Hg (Jul 14, 5:56 PM)
Average79 °F69%30.02 "Hg
* Reported Jul 12 3:56 AM — Jul 27 3:56 AM, Freehold, Weather by CustomWeather, © 2016

Note: Actual official high and low records may vary slightly from our data, if they occured in-between our weather recording intervals... More about our weather records

Advertising

Freehold Weather History for the Previous 24 Hours

Scroll right to see more
 ConditionsComfort  
Time TempWeatherWind HumidityBarometerVisibility
3:56 AM
Wed, Jul 27
73 °FClear.3 mph79%29.95 "Hg10 mi
2:56 AM73 °FClear.5 mph81%29.95 "Hg10 mi
1:56 AM72 °FClear.No wind87%29.95 "Hg10 mi
12:56 AM75 °FClear.No wind82%29.94 "Hg10 mi
11:56 PM
Tue, Jul 26
77 °FClear.No wind74%29.94 "Hg10 mi
10:56 PM79 °FClear.5 mph69%29.93 "Hg10 mi
9:56 PM80 °FClear.3 mph69%29.93 "Hg10 mi
8:56 PM81 °FSunny.5 mph67%29.92 "Hg10 mi
7:56 PM84 °FSunny.6 mph61%29.90 "Hg10 mi
5:56 PM89 °FPassing clouds.9 mph46%29.89 "Hg10 mi
4:56 PM89 °FPassing clouds.10 mph50%29.90 "Hg10 mi
3:56 PM91 °FSunny.12 mph47%29.90 "Hg10 mi
2:56 PM90 °FSunny.14 mph45%29.91 "Hg10 mi
1:56 PM90 °FSunny.13 mph45%29.91 "Hg10 mi
12:56 PM88 °FSunny.10 mph48%29.92 "Hg10 mi
11:56 AM87 °FSunny.8 mph51%29.94 "Hg10 mi
10:56 AM85 °FSunny.10 mph57%29.95 "Hg10 mi
9:56 AM82 °FSunny.7 mph67%29.95 "Hg10 mi
8:56 AM78 °FSunny.9 mph79%29.94 "Hg10 mi
7:56 AM75 °FSunny.7 mph88%29.94 "Hg10 mi
6:56 AM73 °FSunny.7 mph90%29.94 "Hg10 mi
5:56 AM72 °FClear.7 mph93%29.91 "Hg10 mi
Weather by CustomWeather, © 2016

See weather overviewHow to use our weather pages